Simultaneous Nadir Overpasses (SNOs) Predictions

Prediction of SNOs between GOES-15 and METOP-B Satellite Orbit:

Table of predicted SNOs for the next 14.0 days since TLE Epoch: 11/12/2022
Index Date Time (GOES-15) GOES-15 Lat,Lon METOP-B Lat,Lon Distance(km) Time Diff (sec)
1 11/12/2022 17:56:59 -0.23,-128.34 -0.64,-126.47 212.81 80
2 11/14/2022 06:16:00 0.22,-128.31 -0.36,-131.06 313.15 80
3 11/15/2022 05:52:39 0.22,-128.29 0.69,-126.06 254.02 80
4 11/16/2022 18:11:31 -0.21,-128.26 0.29,-130.62 268.34 80
5 11/17/2022 17:53:32 -0.21,-128.25 -0.82,-125.63 299.32 80
6 11/19/2022 06:12:31 0.20,-128.22 -0.23,-130.21 226.44 80
7 11/20/2022 05:49:12 0.21,-128.20 0.89,-125.22 340.26 80
8 11/21/2022 18:08:03 -0.20,-128.16 0.14,-129.77 183.48 80
9 11/22/2022 17:50:04 -0.20,-128.14 -0.98,-124.78 383.45 80
10 11/24/2022 06:09:03 0.20,-128.10 -0.06,-129.36 142.96 80
11 11/25/2022 05:45:42 0.20,-128.07 1.01,-124.36 422.75 80
